Regional Weather Roundup
Issued by NWS

Home | Current Version | Previous Version | Graphics & Text | Print | Product List | Glossary On
Versions: 1 2 3 4 5 6 7 8 9 10 11 12 13 14 15 16 17 18 19 20 21 22 23 24 25 26 27 28 29 30 31 32 33 34 35 36 37 38 39 40 41 42 43 44 45 46 47 48 49 50
409
ASUS44 KJAN 290303
RWRMS

MISSISSIPPI HOURLY WEATHER ROUNDUP
NATIONAL WEATHER SERVICE JACKSON MS
1000 PM CDT THU AUG 28 2014

NOTE: "FAIR: INDICATES FEW OR NO CLOUDS BELOW 12,000 FEET WITH NO
SIGNIFICANT WEATHER AND/OR OBSTRUCTIONS TO VISIBILITY.

MSZ001>002-007>008-010>013-018>021-025>028-034>036-290400-
NORTHWEST MISSISSIPPI

CITY           SKY/WX    TMP DP  RH WIND       PRES   REMARKS
CLARKSDALE     FAIR      75  70  83 CALM      29.96R
CLEVELAND      FAIR      76  70  82 NE6       29.94R
GREENWOOD      CLEAR     73  70  90 NE5       29.95R
GREENVILLE     PTCLDY    75  70  84 S5        29.94R
GRENADA        FAIR      72  68  88 CALM      29.96R
OLIVE BRANCH   MOCLDY    79  75  89 E3        29.97R
OXFORD         FAIR      73  68  83 CALM      29.98S
TUNICA         CLEAR     77  68  73 CALM      29.96R
$$

MSZ003>006-009-014>017-022>024-029>033-037>039-290400-
NORTHEAST MISSISSIPPI

CITY           SKY/WX    TMP DP  RH WIND       PRES   REMARKS
BELMONT        FAIR      72  69  92 CALM      29.99S
COLUMBUS AFB   PTCLDY    75  67  75 CALM      29.96S
CORINTH          N/A     73  70  88 CALM      29.97S FOG
GOLDN TRIANGLE PTCLDY    77  63  61 S5        29.98R
STARKVILLE     FAIR      72  64  78 CALM      29.97R
TUPELO         CLEAR     76  66  71 CALM      29.96S
$$

MSZ040-058-290400-
CENTRAL MISSISSIPPI

CITY           SKY/WX    TMP DP  RH WIND       PRES   REMARKS
JACKSON INTL   PTCLDY    76  71  85 CALM      29.97R
JACKSON HAWKNS PTCLDY    78  69  73 CALM      29.97R
MERIDIAN KEY   PTCLDY    73  68  84 SW3       29.98R
MERIDIAN NAS   PTCLDY    75  67  76 CALM      29.98R
RAYMOND        FAIR      73  68  83 MISG      29.96R
VICKSBURG      CLEAR     75  72  90 CALM      29.95R
$$

MSZ059>079-290400-
SOUTH MISSISSIPPI

CITY           SKY/WX    TMP DP  RH WIND       PRES   REMARKS
BROOKHAVEN     FAIR      75  73  94 CALM      29.99R
COLUMBIA       FAIR      77  73  88 CALM      29.97R
HATTIESBURG    CLOUDY    79  72  79 CALM      29.98R
MCCOMB         CLOUDY    79  73  82 CALM      29.98R
NATCHEZ        PTCLDY    79  73  83 CALM      29.97R
PINE BELT      CLOUDY    77  70  78 CALM      30.00R
$$

MSZ080>082-290400-
COASTAL MISSISSIPPI

CITY           SKY/WX    TMP DP  RH WIND       PRES   REMARKS
BILOXI         PTCLDY    84  70  63 S6        29.97R
PASCAGOULA     CLEAR     73  71  93 CALM      29.98R
GULFPORT       CLEAR     82  72  71 S3        29.97R
$$



USA.gov is the U.S. government's official web portal to all federal, state and local government web resources and services.